Lexington Weather

Lexington, Massachusetts, USA

38°F
1/28/2023 10:32pm 
  • Lexington Conditions: Clear
  • Temperature: 37.9°F / 3.3°CColder 0.9°F than last hour.
  • Dew Point: 28.4°FIncreased 0.7°Fsince last hour.
  • Relative Humidity: 68%Increased 4.0% since last hour.
  • Wind: Calm, 10-min avg: Calm, gust: None
  • Barometer: 30.25 in Steady
  • Visibility: 10 miles
  • Rain Today: 0.00 in
  •   

Regional Weather Roundup
for Boston, MA

        
000
ASUS41 KBOX 250910
RWRBOX

REGIONAL WEATHER ROUNDUP
NATIONAL WEATHER SERVICE BOSTON/NORTON MA
400 AM EST WED JAN 25 2023

NOTE:  "FAIR" INDICATES FEW OR NO CLOUDS BELOW 12,000 FEET WITH NO 
SIGNIFICANT WEATHER AND/OR OBSTRUCTIONS TO VISIBILITY.

MAZALL-251000-
EASTERN MASSACHUSETTS
  
CITY           SKY/WX    TMP DP  RH WIND       PRES   REMARKS
BOSTON         MOCLDY    34  26  72 W7        30.26R WCI  28          
BEVERLY        CLOUDY    32  27  81 W5        30.24R WCI  27          
LAWRENCE       CLOUDY    32  28  85 VRB3      30.26R                  
BEDFORD        CLOUDY    27  24  89 CALM      30.24R FOG              
NORWOOD        CLEAR     29  25  85 CALM      30.26R                  
MARSHFIELD     NOT AVBL                                               
PLYMOUTH       PTCLDY    30  24  78 W6        30.25R WCI  24          
TAUNTON          N/A    N/A N/A N/A MISG      30.26R                  
NEW BEDFORD    PTCLDY    31  27  85 W6        30.26R WCI  25          
$$

MAZALL-251000-
CAPE COD AND THE ISLANDS
  
CITY           SKY/WX    TMP DP  RH WIND       PRES   REMARKS
FALMOUTH       CLEAR     28  25  86 NW5       30.26S WCI  23          
HYANNIS        PTCLDY    32  26  78 W5        30.25R WCI  27          
CHATHAM        CLEAR     32  26  78 NW3       30.26R                  
PROVINCETOWN   CLEAR     36  30  79 W13       30.26R WCI  27          
NANTUCKET      PTCLDY    34  26  72 W7        30.27R WCI  28          
MARTHAS VNYRD  PTCLDY    35  26  69 W5        30.27R WCI  31          
$$
 
MAZALL-251000-
CENTRAL AND WESTERN MASSACHUSETTS
  
CITY           SKY/WX    TMP DP  RH WIND       PRES   REMARKS
WORCESTER      PTCLDY    28  23  81 W9        30.21R WCI  19          
FITCHBURG      PTCLDY    22  19  89 CALM      30.25R                  
ORANGE         FOG       21  19  92 CALM      30.25R VSB 1/4          
SPRINGFIELD    PTCLDY    28  22  78 CALM      30.24R                  
WESTFIELD      MOCLDY    27  24  89 CALM      30.26R                  
NORTH ADAMS    PTCLDY    26  22  84 W3        30.23S                  
PITTSFIELD     CLOUDY    28  22  78 W8        30.20R WCI  20          
$$
 
RIZALL-251000-
RHODE ISLAND
  
CITY           SKY/WX    TMP DP  RH WIND       PRES   REMARKS
PROVIDENCE     PTCLDY    30  25  81 W6        30.27S WCI  24          
NEWPORT        PTCLDY    33  25  72 CALM      30.26S                  
BLOCK ISLAND   CLOUDY    36  21  54 NW8       30.30R WCI  30          
SMITHFIELD     PTCLDY    29  25  85 W6        30.25S WCI  23          
WESTERLY       CLOUDY    33  24  69 CALM      30.29R                  
$$
 
CTZALL-251000-
CONNECTICUT
  
CITY           SKY/WX    TMP DP  RH WIND       PRES   REMARKS
BRADLEY INTL   MOCLDY    32  25  75 W5        30.28R WCI  27          
HARTFORD       CLOUDY    34  28  79 CALM      30.29R                  
BRIDGEPORT     MOCLDY    32  23  69 CALM      30.29R                  
DANBURY        MOCLDY    30  23  75 CALM      30.28R                  
GROTON         CLOUDY    37  26  64 W6        30.30R                  
NEW HAVEN      CLOUDY    37  26  64 CALM      30.29R                  
CHESTER        CLOUDY    34  25  69 VRB3      30.28                   
MERIDEN        CLOUDY    32  27  81 CALM      30.29R                  
WILLIMANTIC    CLOUDY    29  28  96 CALM      30.28R                  
OXFORD         CLOUDY    30  25  81 SW3       30.27R                  
$$

MEZ002-015-021-024-NHZ003-005-008-011-012-014-VTZ005-008-251000-
NORTHERN NEW ENGLAND
  
CITY           SKY/WX    TMP DP  RH WIND       PRES   REMARKS
PORTLAND ME    CLEAR     22  21  96 CALM      30.24R                  
BANGOR ME      CLEAR     16  11  80 W3        30.23R                  
CONCORD NH     CLOUDY    30  27  88 W6        30.22S WCI  24          
MANCHESTER NH  CLOUDY    31  27  85 SE3       30.22R                  
NASHUA NH      MOCLDY    26  26 100 S3        30.25R                  
PORTSMOUTH NH  MOCLDY    29  26  89 CALM      30.23R                  
JAFFREY NH     CLEAR     18  15  88 CALM      30.20R                  
KEENE NH       MOCLDY    22  21  96 CALM      30.24R                  
BURLINGTON VT  CLOUDY    24  14  65 E5        30.27R WCI  18          
MT. WASHINGTON BLWGSNOW   7   7 100 W43         N/A  VSB 1/16WCI -20  
$$

NYZ052-076-251000-
EASTERN NEW YORK
  
CITY           SKY/WX    TMP DP  RH WIND       PRES   REMARKS
ALBANY         MOCLDY    31  23  72 W7        30.26R WCI  24          
NEW YORK CITY  MOCLDY    37  21  52 NW6       30.28S                  
$$
 
ANZALL-251000-
MARINE OBSERVATIONS
  
STATION/POSITION TIME  TEMP    WIND        PRES    VSBY  WAVE
                       AIR SEA DIR/SP/G                  HT/PER
                 (UTC) (F)     (DEG/KT/KT) (MB)    (MI)  (FT/S)
BOSTON BUOY      0830                      1024.7R
BUZZARDS BAY     0800   37     290/ 18/ 20 1025.2F
NANTUCKET SOUND  0850   38 42  280/ 14/ 16 1024.5F         1/ 4
MASS BAY-STELLWA 0704   37 42  270/ 14/ 17 1022.9R  1 7/8  2/ 4
ISLE OF SHOALS   0800   36     260/ 11/ 12 1023.2R
S OF BLOCK IS    0826      44                N/A           5/ 7
$$

......................KEY.........................
  SKY/WX - SKY CONDITION/PRESENT WEATHER
  TMP    - TEMPERATURE IN FAHRENHEIT
  DWPT   - DEWPOINT IN FAHRENHEIT
  RH     - RELATIVE HUMIDITY IN PERCENT
  WIND   - DIRECTION AND SPEED IN MPH
  PRES   - MEAN SEA LEVEL PRESSURE IN INCHES OF HG
  WCI    - WIND CHILL INDEX
  VSB    - VISIBILITY IN MILES
  HX     - HEAT INDEX
  TC     - TEMPERATURE IN CELSIUS
  VRB    - VARIABLE WIND DIRECTION
  N/A    - NOT AVAILABLE
  
      

Other recent Regional Weather Roundups

Sat Jan 28, 10:10pm EST

Sat Jan 28, 9:10pm EST

Sat Jan 28, 8:10pm EST

Sat Jan 28, 7:10pm EST

Sat Jan 28, 6:10pm EST

Sat Jan 28, 5:10pm EST

Sat Jan 28, 4:10pm EST

Sat Jan 28, 3:10pm EST

Sat Jan 28, 2:10pm EST

Sat Jan 28, 1:10pm EST

Sat Jan 28, 12:10pm EST

Sat Jan 28, 11:10am EST

Sat Jan 28, 10:10am EST

Sat Jan 28, 9:10am EST

Sat Jan 28, 8:10am EST

Sat Jan 28, 7:10am EST

Sat Jan 28, 6:10am EST

Sat Jan 28, 5:10am EST

Sat Jan 28, 4:10am EST

Sat Jan 28, 3:10am EST

Sat Jan 28, 2:10am EST

Sat Jan 28, 1:10am EST

Sat Jan 28, 12:10am EST

Fri Jan 27, 11:10pm EST

Fri Jan 27, 10:10pm EST

Fri Jan 27, 9:10pm EST

Fri Jan 27, 8:10pm EST

Fri Jan 27, 7:10pm EST

Fri Jan 27, 6:10pm EST

Fri Jan 27, 5:10pm EST

Fri Jan 27, 4:10pm EST

Fri Jan 27, 3:10pm EST

Fri Jan 27, 2:10pm EST

Fri Jan 27, 1:10pm EST

Fri Jan 27, 12:10pm EST

Fri Jan 27, 11:10am EST

Fri Jan 27, 10:10am EST

Fri Jan 27, 9:10am EST

Fri Jan 27, 8:10am EST

Fri Jan 27, 7:10am EST

Fri Jan 27, 6:10am EST

Fri Jan 27, 5:10am EST

Fri Jan 27, 4:10am EST

Fri Jan 27, 3:10am EST

Fri Jan 27, 2:10am EST

Fri Jan 27, 1:10am EST

Fri Jan 27, 12:10am EST

Thu Jan 26, 11:10pm EST

Thu Jan 26, 10:10pm EST

Thu Jan 26, 9:10pm EST

Thu Jan 26, 8:10pm EST

Thu Jan 26, 7:10pm EST

Thu Jan 26, 6:10pm EST

Thu Jan 26, 5:10pm EST

Thu Jan 26, 4:10pm EST

Thu Jan 26, 3:10pm EST

Thu Jan 26, 2:10pm EST

Thu Jan 26, 1:10pm EST

Thu Jan 26, 12:10pm EST

Thu Jan 26, 11:10am EST

Thu Jan 26, 10:10am EST

Thu Jan 26, 9:10am EST

Thu Jan 26, 8:10am EST

Thu Jan 26, 7:10am EST

Thu Jan 26, 6:10am EST

Thu Jan 26, 5:10am EST

Thu Jan 26, 4:10am EST

Thu Jan 26, 3:10am EST

Thu Jan 26, 2:10am EST

Thu Jan 26, 1:10am EST

Thu Jan 26, 12:10am EST

Wed Jan 25, 11:10pm EST

Wed Jan 25, 10:10pm EST

Wed Jan 25, 9:10pm EST

Wed Jan 25, 8:10pm EST

Wed Jan 25, 7:10pm EST

Wed Jan 25, 6:10pm EST

Wed Jan 25, 5:10pm EST

Wed Jan 25, 4:10pm EST

Wed Jan 25, 3:10pm EST

Wed Jan 25, 2:10pm EST

Wed Jan 25, 1:10pm EST

Wed Jan 25, 12:10pm EST

Wed Jan 25, 11:10am EST

Wed Jan 25, 10:10am EST

Wed Jan 25, 9:10am EST

Wed Jan 25, 8:10am EST

Wed Jan 25, 7:10am EST

Wed Jan 25, 6:10am EST

Wed Jan 25, 5:10am EST

Wed Jan 25, 3:10am EST

Wed Jan 25, 2:10am EST

Wed Jan 25, 1:10am EST

Wed Jan 25, 12:10am EST

Tue Jan 24, 11:10pm EST

Tue Jan 24, 10:10pm EST

Tue Jan 24, 9:10pm EST

Tue Jan 24, 8:10pm EST

Tue Jan 24, 7:10pm EST

Tue Jan 24, 6:10pm EST

Tue Jan 24, 5:10pm EST

Tue Jan 24, 4:10pm EST

Tue Jan 24, 3:10pm EST

Tue Jan 24, 2:10pm EST

Tue Jan 24, 1:10pm EST

Tue Jan 24, 12:10pm EST

Tue Jan 24, 11:10am EST

Tue Jan 24, 10:10am EST

Tue Jan 24, 9:10am EST

Tue Jan 24, 8:10am EST

Tue Jan 24, 7:10am EST

Tue Jan 24, 6:10am EST

Tue Jan 24, 5:10am EST

Tue Jan 24, 4:10am EST

Tue Jan 24, 3:10am EST

Tue Jan 24, 2:10am EST

Tue Jan 24, 1:10am EST

Tue Jan 24, 12:10am EST

Mon Jan 23, 11:10pm EST

Mon Jan 23, 10:10pm EST

Mon Jan 23, 9:10pm EST

Mon Jan 23, 8:10pm EST

Mon Jan 23, 7:10pm EST

Mon Jan 23, 6:10pm EST

Mon Jan 23, 5:10pm EST

Mon Jan 23, 4:10pm EST

Mon Jan 23, 3:10pm EST

Mon Jan 23, 2:10pm EST

Mon Jan 23, 1:10pm EST

Mon Jan 23, 12:10pm EST

Mon Jan 23, 11:10am EST

Mon Jan 23, 10:10am EST

Mon Jan 23, 9:10am EST

Mon Jan 23, 8:10am EST

Mon Jan 23, 7:10am EST

Mon Jan 23, 6:10am EST

Mon Jan 23, 5:10am EST

Mon Jan 23, 4:10am EST

Mon Jan 23, 3:10am EST

Mon Jan 23, 2:10am EST

Mon Jan 23, 1:10am EST

Mon Jan 23, 12:10am EST

Sun Jan 22, 11:10pm EST

Sun Jan 22, 10:10pm EST

Sun Jan 22, 9:10pm EST

Sun Jan 22, 8:10pm EST

Sun Jan 22, 7:10pm EST

Sun Jan 22, 6:10pm EST

Sun Jan 22, 5:10pm EST

Sun Jan 22, 4:10pm EST

Sun Jan 22, 3:10pm EST

Sun Jan 22, 2:10pm EST

Sun Jan 22, 1:10pm EST

Sun Jan 22, 12:10pm EST

Sun Jan 22, 11:10am EST

Sun Jan 22, 10:10am EST

Sun Jan 22, 9:10am EST

Sun Jan 22, 8:10am EST

Sun Jan 22, 7:10am EST

Sun Jan 22, 6:10am EST

Sun Jan 22, 5:10am EST

Sun Jan 22, 4:10am EST

Sun Jan 22, 3:10am EST

Sun Jan 22, 2:10am EST

Sun Jan 22, 1:10am EST

Sun Jan 22, 12:10am EST

Sat Jan 21, 11:10pm EST